Svyataya Anna — UUCV — position and weather

sailwx.info

Track history (hours):
 
Tides and Currents Weather Stations Pressure Air Temp Water Temp Dewpoint Dewpoint Depression Visibility Wind Speed Wind Dir Waves Ship Positions

Svyataya Anna

Last reported at 2014-Jul-19 07:32 UTC. Time now 2014-Jul-26 07:10 UTC.
Position N 44°41' E 035°03'.

Length 93 m; draft 1.8 m.

Type: Cargo ship. MMSI: 272068800.

Date/timePositionNaut miles runAvg speedWind from/ knotsBaromVisibWave heightAir tempDewpointWater temp
2014-Jul-19 07:32N 44°41' E 035°03'6 5.8
2014-Jul-19 06:33N 44°38' E 034°57'6 5.8
2014-Jul-19 05:33N 44°34' E 034°50'6 5.5
2014-Jul-19 04:33N 44°31' E 034°44'3 2.2
2014-Jul-19 03:25N 44°30' E 034°40'5 5.4
2014-Jul-19 02:33N 44°29' E 034°34'5 5.1
2014-Jul-19 01:33N 44°26' E 034°28'5 5.4
2014-Jul-19 00:33N 44°23' E 034°22'5 5.3
2014-Jul-18 23:33N 44°20' E 034°16'7 5.5
2014-Jul-18 22:19N 44°16' E 034°08'5 5.6
2014-Jul-18 21:25N 44°14' E 034°02'194 4.4
2014-Jul-17 01:03N 46°30' E 030°44'0 0.0
2014-Jul-17 00:33N 46°30' E 030°44'0 0.0
2014-Jul-16 16:21N 46°30' E 030°44'  
2014-Jul-14 01:21N 44°18' E 034°05'6 6.1
2014-Jul-14 00:17N 44°22' E 034°12'4 6.1
2014-Jul-13 23:33N 44°25' E 034°16'6 5.7
2014-Jul-13 22:34N 44°28' E 034°23'6 5.6
2014-Jul-13 21:33N 44°31' E 034°30'6 5.8
2014-Jul-13 20:34N 44°34' E 034°37'6 5.7
2014-Jul-13 19:34N 44°37' E 034°44'6 5.8
2014-Jul-13 18:33N 44°39' E 034°51'6 5.8
2014-Jul-13 17:33N 44°42' E 034°58'6 5.7
2014-Jul-13 16:33N 44°45' E 035°05'6 5.6
2014-Jul-13 15:28N 44°48' E 035°12'7 5.3
2014-Jul-13 14:07N 44°53' E 035°20'35 1.9
2014-Jul-12 19:33N 44°56' E 036°08'6 5.6
2014-Jul-12 18:33N 44°57' E 036°16'6 5.5
2014-Jul-12 17:25N 44°58' E 036°25'4 5.0
2014-Jul-12 16:33N 45°01' E 036°29'  
Track history (hours):
 
Tides and Currents Weather Stations Pressure Air Temp Water Temp Dewpoint Dewpoint Depression Visibility Wind Speed Wind Dir Waves Ship Positions

Svyataya Anna

Last reported at 2014-Jul-19 07:32 UTC. Time now 2014-Jul-26 07:10 UTC.
Position N 44°41' E 035°03'.

Length 93 m; draft 1.8 m.

Type: Cargo ship. MMSI: 272068800.

Date/timePositionNaut miles runAvg speedWind from/ knotsBaromVisibWave heightAir tempDewpointWater temp
2014-Jul-19 07:32N 44°41' E 035°03'6 5.8
2014-Jul-19 06:33N 44°38' E 034°57'6 5.8
2014-Jul-19 05:33N 44°34' E 034°50'6 5.5
2014-Jul-19 04:33N 44°31' E 034°44'3 2.2
2014-Jul-19 03:25N 44°30' E 034°40'5 5.4
2014-Jul-19 02:33N 44°29' E 034°34'5 5.1
2014-Jul-19 01:33N 44°26' E 034°28'5 5.4
2014-Jul-19 00:33N 44°23' E 034°22'5 5.3
2014-Jul-18 23:33N 44°20' E 034°16'7 5.5
2014-Jul-18 22:19N 44°16' E 034°08'5 5.6
2014-Jul-18 21:25N 44°14' E 034°02'194 4.4
2014-Jul-17 01:03N 46°30' E 030°44'0 0.0
2014-Jul-17 00:33N 46°30' E 030°44'0 0.0
2014-Jul-16 16:21N 46°30' E 030°44'  
2014-Jul-14 01:21N 44°18' E 034°05'6 6.1
2014-Jul-14 00:17N 44°22' E 034°12'4 6.1
2014-Jul-13 23:33N 44°25' E 034°16'6 5.7
2014-Jul-13 22:34N 44°28' E 034°23'6 5.6
2014-Jul-13 21:33N 44°31' E 034°30'6 5.8
2014-Jul-13 20:34N 44°34' E 034°37'6 5.7
2014-Jul-13 19:34N 44°37' E 034°44'6 5.8
2014-Jul-13 18:33N 44°39' E 034°51'6 5.8
2014-Jul-13 17:33N 44°42' E 034°58'6 5.7
2014-Jul-13 16:33N 44°45' E 035°05'6 5.6
2014-Jul-13 15:28N 44°48' E 035°12'7 5.3
2014-Jul-13 14:07N 44°53' E 035°20'35 1.9
2014-Jul-12 19:33N 44°56' E 036°08'6 5.6
2014-Jul-12 18:33N 44°57' E 036°16'6 5.5
2014-Jul-12 17:25N 44°58' E 036°25'4 5.0
2014-Jul-12 16:33N 45°01' E 036°29'  

Dump ship's entire track history